Location: Unspecified
(0.0000°N, 0.0000°E)
Time: 04:30:11
(UTC+00:00)

OTV 4 - Pass Details

Date: 30 April 2017
Orbit: 320 x 337 km, 38.0° (Epoch: 25 April)

Event Time Altitude Azimuth Distance (km) Brightness Sun altitude
Rises 18:52:48 0° 336° (NNW) 2,085 4.9 -13.4°
Reaches altitude 10° 18:55:19 10° 360° (N) 1,255 3.4 -14.0°
Maximum altitude 18:57:08 16° 40° (NE) 992 2.4 -14.5°
Enters shadow 18:57:16 16° 43° (NE) 994 2.4 -14.5°
